Header for Extended Forecast Station List Page

Search by: ID | Name | Date | Parm | Value | Avg | % Avg
Sort by: ID | Name | Date | Parm | Value | Avg | % Avg

Enter search or view all records.

Click on id for station plot
#IDNameDateParmValueAvg% Avg
0HWRI1BIG LOST-AT HOWELL RANCH NEAR CHILLY01-22-2019DISCHARGE (KAF)284168
1MACI1BIG LOST-MACKAY RESERVOIR NEAR MACKAY01-22-2019INFLOW (KAF)3632113
2HALI1BIG WOOD-AT HAILEY01-22-2019DISCHARGE (KAF)549060
3MAGI1BIG WOOD-MAGIC DAM01-22-2019INFLOW (KAF)5614638
4BITM8BITTERROOT-NEAR MISSOULA01-22-2019DISCHARGE (KAF)38647881
5BONM8BLACKFOOT-NEAR BONNER01-22-2019DISCHARGE (KAF)30535187
6BIGI1BOISE-AT GLENWOOD BRIDGE01-22-2019DISCHARGE (KAF)308234132
7LUCI1BOISE-LUCKY PEAK DAM01-22-2019INFLOW (KAF)647MM
8PARI1BOISE-NEAR PARMA01-22-2019DISCHARGE (KAF)376348108
9HOTI1BRUNEAU-NEAR HOT SPRINGS01-22-2019DISCHARGE (KAF)7111263
10BULO3BULLY CREEK-BULLY CREEK DAM01-22-2019INFLOW (KAF)4946
11BUDW1BUMPING-BUMPING LAKE DAM01-22-2019INFLOW (KAF)566193
12CHDW1CHELAN-LAKE CHELAN DAM01-22-2019INFLOW (KAF)29838777
13ABOM8CLARK FORK-ABOVE MISSOULA01-22-2019DISCHARGE (KAF)56567983
14DLGM8CLARK FORK-AT DEER LODGE01-22-2019DISCHARGE (KAF)636892
15SRGM8CLARK FORK-AT ST REGIS01-22-2019DISCHARGE (KAF)1346163682
16BELM8CLARK FORK-BELOW MISSOULA01-22-2019DISCHARGE (KAF)951116482
17CABI1CLARK FORK-CABINET GORGE DAM01-22-2019INFLOW (KAF)3660544867
18NOXM8CLARK FORK-NOXON RAPIDS DAM01-22-2019INFLOW (KAF)3281519063
19DRMM8CLARK FORK-NR DRUMMOND01-22-2019DISCHARGE (KAF)170MM
20CLUW1CLE ELUM-CLE ELUM LAKE01-22-2019INFLOW (KAF)226210108
21ORFI1CLEARWATER-AT OROFINO01-22-2019DISCHARGE (KAF)2459259695
22SPDI1CLEARWATER-AT SPALDING01-22-2019DISCHARGE (KAF)3795447085
23COEI1COEUR D ALENE-COEUR D ALENE LAKE01-22-2019INFLOW (KAF)2190240191
24CIBW1COLUMBIA-AT INTL BOUNDARY01-22-2019DISCHARGE (KAF)15905MM
25BONO3COLUMBIA-BONNEVILLE DAM01-22-2019INFLOW (KAF)349124811573
26CHJW1COLUMBIA-CHIEF JOSEPH DAM01-22-2019INFLOW (KAF)192752481078
27GCDW1COLUMBIA-GRAND COULEE DAM01-22-2019INFLOW (KAF)189772146188
28JDAO3COLUMBIA-JOHN DAY DAM01-22-2019INFLOW (KAF)335994366577
29MCDW1COLUMBIA-MCNARY DAM01-22-2019INFLOW (KAF)316964128377
30PRWW1COLUMBIA-PRIEST RAPIDS DAM01-22-2019INFLOW (KAF)208622483084
31RRHW1COLUMBIA-ROCKY REACH DAM01-22-2019INFLOW (KAF)202682610478
32TDAO3COLUMBIA-THE DALLES DAM01-22-2019INFLOW (KAF)340304534475
33WANW1COLUMBIA-WANAPUM DAM01-22-2019INFLOW (KAF)208642455085
34WELW1COLUMBIA-WELLS DAM01-22-2019INFLOW (KAF)199312569778
35DEDI1DEADWOOD-NEAR LOWMAN01-22-2019INFLOW (KAF)425478
36MODO3DESCHUTES-AT MOODY NR BIGGS01-22-2019DISCHARGE (KAF)1404159688
37ARDW1ENTIAT-NEAR ARDENVOIR01-22-2019DISCHARGE (KAF)586688
38CHEI1FALL RIVER-NEAR CHESTER01-22-2019DISCHARGE (KAF)186182102
39CFMM8FLATHEAD-AT COLUMBIA FALLS01-22-2019DISCHARGE (KAF)1374199869
40KERM8FLATHEAD-KERR DAM01-22-2019INFLOW (KAF)1521257359
41TRYO3GRANDE RONDE-TROY01-22-2019DISCHARGE (KAF)74597676
42REXI1HENRYS FORK-AT REXBURG01-22-2019DISCHARGE (KAF)50254991
43ANTI1HENRYS FORK-AT ST. ANTHONY01-22-2019DISCHARGE (KAF)47147699
44IPDI1HENRYS FORK-ISLAND PARK DAM01-22-2019INFLOW (KAF)13914696
45HODO3HOOD-NEAR TUCKER BRIDGE01-22-2019DISCHARGE (KAF)26228791
46SERO3JOHN DAY-AT SERVICE CK01-22-2019DISCHARGE (KAF)49079761
47KADW1KACHESS-KACHESS DAM01-22-2019INFLOW (KAF)8577110
48LAUW1KETTLE-AT LAURIER01-22-2019DISCHARGE (KAF)61281275
49PITW1KLICKITAT-NEAR PITT01-22-2019DISCHARGE (KAF)34650169
50BFEI1KOOTENAI-AT BONNERS FERRY01-22-2019STAGE (FT)MMM
51LEOI1KOOTENAI-AT LEONIA01-22-2019DISCHARGE (KAF)1699222876
52LYDM8KOOTENAI-LIBBY DAM01-22-2019INFLOW (KAF)1254172773
53LWRI1LITTLE WOOD-LITTLE WOOD DAM01-22-2019INFLOW (KAF)294663
54BERO3MALHEUR-AGENCY VALLEY DAM01-22-2019INFLOW (KAF)254952
55VALO3MALHEUR-NEAR VALE01-22-2019DISCHARGE (KAF)606296
56WRMO3MALHEUR-WARM SPRINGS DAM01-22-2019INFLOW (KAF)437657
57MYKO3MCKAY CREEK-NEAR PILOT ROCK01-22-2019DISCHARGE (KAF)374190
58PATW1METHOW-NEAR PATEROS01-22-2019DISCHARGE (KAF)21031068
59WGCM8MF FLATHEAD-NEAR WEST GLACIER01-22-2019DISCHARGE (KAF)38255069
60CLFW1NACHES-NEAR CLIFFDEL01-22-2019DISCHARGE (KAF)17722977
61NACW1NACHES-NEAR NACHES01-22-2019DISCHARGE (KAF)24627390
62DWRI1NF CLEARWATER-DWORSHAK DAM01-22-2019INFLOW (KAF)18491845100
63FCFM8NF FLATHEAD-NEAR COLUMBIA FALLS01-22-2019DISCHARGE (KAF)40257969
64MONO3NF JOHN DAY-AT MONUMENT01-22-2019DISCHARGE (KAF)32954061
65CSDI1NF PAYETTE-CASCADE DAM01-22-2019INFLOW (KAF)22025985
66TONW1OKANOGAN-NEAR TONASKET01-22-2019DISCHARGE (KAF)46159977
67OWYO3OWYHEE-OWYHEE DAM01-22-2019INFLOW (KAF)19933859
68EMMI1PAYETTE-NEAR EMMETT01-22-2019DISCHARGE (KAF)52779766
69ALFW1PEND OREILLE-ALBENI FALLS DAM01-22-2019INFLOW (KAF)4641664770
70HOPI1PEND OREILLE-PEND OREILLE LAKE NR HOPE01-22-2019LAKE ELEVATION (FT)MMM
71PIHI1PORTNEUF-AT POCATELLO01-22-2019DISCHARGE (KAF)729873
72PRTI1PRIEST-NEAR PRIEST RIVER01-22-2019DISCHARGE (KAF)40446387
73RCCM8ROCK CREEK-NEAR CLINTON01-22-2019DISCHARGE (KAF)709573
74WHBI1SALMON-AT WHITEBIRD01-22-2019DISCHARGE (KAF)1665223774
75ARAI1SF BOISE-ANDERSON RANCH DAM01-22-2019INFLOW (KAF)18928566
76HHWM8SF FLATHEAD-HUNGRY HORSE DAM01-22-2019INFLOW (KAF)60580675
77PLDI1SF SNAKE-PALISADES DAM01-22-2019INFLOW (KAF)958112186
78SIFI1SNAKE-AB EAGLE ROCK NR IDAHO FALLS01-22-2019DISCHARGE (KAF)1299131699
79AFRI1SNAKE-AMERICAN FALLS RESERVOIR01-22-2019INFLOW (KAF)1588191583
80SNAI1SNAKE-AT BLACKFOOT01-22-2019DISCHARGE (KAF)1029118487
81MILI1SNAKE-AT MILNER01-22-2019DISCHARGE (KAF)7976010
82WEII1SNAKE-AT WEISER01-22-2019DISCHARGE (KAF)3229494965
83SWAI1SNAKE-BELOW SWAN FALLS01-22-2019DISCHARGE (KAF)1756272564
84BRNI1SNAKE-BROWNLEE DAM01-22-2019INFLOW (KAF)3576531167
85IHDW1SNAKE-ICE HARBOR DAM01-22-2019INFLOW (KAF)100201413571
86JLKW4SNAKE-JACKSON LAKE AT DAM01-22-2019INFLOW (KAF)19023182
87LGSW1SNAKE-LITTLE GOOSE DAM01-22-2019INFLOW (KAF)96931404069
88LGDW1SNAKE-LOWER GRANITE DAM01-22-2019INFLOW (KAF)96931398469
89LMNW1SNAKE-LOWER MONUMENTAL DAM01-22-2019INFLOW (KAF)100201430670
90ALPW4SNAKE-NEAR ALPINE01-22-2019DISCHARGE (KAF)61367691
91ANAW1SNAKE-NEAR ANATONE01-22-2019DISCHARGE (KAF)5898950362
92BFTI1SNAKE-NEAR BLACKFOOT01-22-2019DISCHARGE (KAF)1013121384
93HEII1SNAKE-NEAR HEISE01-22-2019DISCHARGE (KAF)11951174102
94JKSW4SNAKE-NEAR JACKSON01-22-2019DISCHARGE (KAF)45849792
95SHYI1SNAKE-NEAR SHELLEY01-22-2019DISCHARGE (KAF)1206134790
96LLKW1SPOKANE-AT LONGLAKE01-22-2019INFLOW (KAF)2409284185
97SPOW1SPOKANE-AT SPOKANE01-22-2019DISCHARGE (KAF)2040MM
98SJMI1ST JOE-AT ST MARIES01-22-2019STAGE (FT)MMM
99SATI1ST MARIES-NEAR SANTA01-22-2019DISCHARGE (KAF)140137102
100STRM8ST. REGIS-NEAR ST. REGIS01-22-2019DISCHARGE (KAF)10916765
101TNAW1TEANAWAY-BELOW FORKS01-22-2019DISCHARGE (KAF)126116108
102TEAI1TETON-NEAR ST. ANTHONY01-22-2019DISCHARGE (KAF)13315387
103RILW1TIETON-RIMROCK LAKE NEAR RIMROCK01-22-2019INFLOW (KAF)8611277
104PDTO3UMATILLA-AT PENDLETON01-22-2019DISCHARGE (KAF)199196102
105GIBO3UMATILLA-NEAR GIBBON01-22-2019DISCHARGE (KAF)9482115
106UMAO3UMATILLA-NEAR UMATILLA01-22-2019DISCHARGE (KAF)177177100
107TCHW1WALLA WALLA-NEAR TOUCHET01-22-2019DISCHARGE (KAF)21121996
108WSRI1WEISER-NEAR WEISER01-22-2019DISCHARGE (KAF)30537382
109PESW1WENATCHEE-AT PESHASTIN01-22-2019DISCHARGE (KAF)60265991
110UNDW1WHITE SALMON-NEAR UNDERWOOD01-22-2019DISCHARGE (KAF)29335283
111RIDI1WILLOW CREEK-RIRIE DAM01-22-2019INFLOW (KAF)313589
112EASW1YAKIMA-AT EASTON01-22-2019DISCHARGE (KAF)8410085
113KIOW1YAKIMA-AT KIONA01-22-2019DISCHARGE (KAF)71396474
114UMTW1YAKIMA-AT UMTANUM01-22-2019DISCHARGE (KAF)49750998
115KEDW1YAKIMA-KEECHELUS LAKE01-22-2019INFLOW (KAF)9481117
116PARW1YAKIMA-NEAR PARKER01-22-2019DISCHARGE (KAF)48061878